Regional Weather Roundup
Issued by NWS

Home | Current Version | Previous Version | Text Only | Print | Product List | Glossary Off
Versions: 1 2 3 4 5 6 7 8 9 10 11 12 13 14 15 16 17 18 19 20 21 22 23 24 25 26 27 28 29 30 31 32 33 34 35 36 37 38 39 40 41 42 43 44 45 46 47 48 49 50

000
ASUS45 KSLC 171810
RWRUT

UTAH REGIONAL WEATHER ROUNDUP
NATIONAL WEATHER SERVICE SALT LAKE CITY UT
1200 PM MDT THU AUG 17 2017

UTZ001>011-023>025-171900-

NORTHERN UTAH

CITY           SKY/WX    TMP DP  RH WIND       PRES   REMARKS
BRIGHAM CITY   MOSUNNY   81  35  19 W3        30.16S
DUGWAY         MOSUNNY   86  35  16 W5        30.16S
HILL AFB       MOSUNNY   81  37  21 CALM      30.18S
LOGAN          SUNNY     81  41  24 N3        30.16F
OGDEN          SUNNY     83  38  20 NW7       30.15S
SALT LAKE CITY MOSUNNY   86  39  19 VRB3      30.13F
TOOELE VALLEY  SUNNY     82  43  24 N6        30.15S
WENDOVER       SUNNY     82  40  22 E9        30.15F
HEBER CITY     SUNNY     73  41  31 CALM      30.22F
WEST JORDAN    SUNNY     82  52  35 S12       30.17S

$$

UTZ011>015-024>027-171900-

CENTRAL/NORTHEAST UTAH

CITY           SKY/WX    TMP DP  RH WIND       PRES   REMARKS
PROVO AIRPORT  SUNNY     79  51  37 W5        30.18F HAZE
MOAB/CANYONLAN SUNNY     86  33  15 CALM      30.15S
DELTA          SUNNY     81  36  19 SW6       30.18S
PRICE          SUNNY     79  35  20 SE7       30.25S
ROOSEVELT      SUNNY     77  43  29 CALM      30.23F
VERNAL         SUNNY     76  46  34 E5        30.21F

$$

UTZ013>016-019>022-027-171900-

SOUTHERN UTAH

CITY           SKY/WX    TMP DP  RH WIND       PRES   REMARKS
BRYCE CANYON   MOSUNNY   74  32  21 S8        30.38F
CEDAR CITY     MOSUNNY   82  39  21 NW7       30.24S
MILFORD        SUNNY     84  39  20 S12       30.19F
ST GEORGE      CLEAR     85  42  22 CALM      30.08F
HANKSVILLE     SUNNY     86  34  15 SE3       30.17F
BLANDING       SUNNY     78  31  18 CALM      30.34S

$$

REGIONAL REPORTS     COLORADO/ARIZONA

CITY           SKY/WX    TMP DP  RH WIND       PRES   REMARKS
CRAIG, CO      SUNNY     77  35  21 MISG      30.26F
GRAND JUNCTION SUNNY     78  39  24 CALM      30.19F
RIFLE, CO      SUNNY     78  38  23 NW3       30.22F
MONTROSE, CO   SUNNY     76  42  29 NW8       30.26F
CORTEZ, CO     SUNNY     81  28  14 SW6       30.27F
COLORADO CITY    N/A     84  41  21 N3        30.23F
PAGE, AZ       SUNNY     85  37  18 N7        30.15F
GRAND CANYON   SUNNY     76  39  26 S13       30.34S
KINGMAN, AZ    SUNNY     91  39  16 NE14      30.11S
FLAGSTAFF, AZ  SUNNY     72  33  24 S7        30.37S

$$

REGIONAL REPORTS    NEVADA/IDAHO/WYOMING

CITY           SKY/WX    TMP DP  RH WIND       PRES   REMARKS
LAS VEGAS, NV  MOSUNNY   93  39  15 NE5       30.01F
ELY, NY        SUNNY     80  35  19 VRB5      30.28F
ELKO, NV       SUNNY     80  33  18 S5        30.22S
POCATELLO, ID  SUNNY     79  38  22 SW20      30.17R
BURLEY, ID     SUNNY     76  44  32 W12       30.15S
FORT BRIDGER,    N/A     78  32  19 W14G24    30.32S
EVANSTON, WY   SUNNY     75  36  24 SW20G25   30.31S
ROCK SPRINGS,  SUNNY     75  33  21 W15       30.27F
KEMMERER, WY     N/A     72  32  23 W17G24    30.31F

$$



USA.gov is the U.S. government's official web portal to all federal, state and local government web resources and services.